Starlink 1246

operational
NORAD ID: 45235 Int'l Des: 2020-012 Owner: SPXS Country: US Constellation: starlink
LEOCIRCULARSTARLINK_TYPE

Über Starlink 1246

Beschreibung wird geladen...

Live-Position

3D-Globus wird geladen...

Nächste Überflüge

Höhenverlauf

Altitude vs Time

uPlot chart will show altitude changes over time

Zweizeiliger Elementsatz

1 45235U 20012BK 25351.57300194 .00000505 00000-0 52756-4 0 9998
2 45235 53.0556 55.2541 0001339 99.0534 261.0606 15.06409200322480
Epoch: 17. Dez. 2025 • Age: 8 hours

Aktueller Status

Höhe 547.3 km
Geschwindigkeit 7.59 km/s
Subsatellitenpunkt 18.85°N, 14.49°E
Startdatum 17. Feb. 2020
Alter 5.8 years
Typ internet

Technische Details

Klassifizierung Payload
Masse 260.00 kg
Trockenmasse 248.00 kg
Gesamtmasse 260.00 kg
Länge 0.20 m
Durchmesser 2.80 m
Spannweite 9.00 m
Form Box + pan
Hersteller SPXS
Bus-Typ Starlink
Phasenstatus In Orbit
Besitzer/Staat SPXS/US

Große Konstellationen

Loading constellations...